Wind_Speed
19 19 19 21 22 23 25 24 24 25 25 24 23 24 25 25 25 23 22 21 20 20 19 17 15 14 13 11 10 9 11 12 12 13 15 17 16 16 15 12 11 11 11 10 9 10 10 10 9 9 9 8 4 4 6 3 3 2 3 4 2 3 3 4 7 7 3 4 8 11 14 10 6 9 10 7 6 8 10 9 8 10 10 8 7 6 17 25
17 17 18 21 23 24 25 25 25 25 25 24 24 24 25 24 23 22 22 21 20 19 17 15 14 14 13 10 9 10 11 12 12 14 15 16 17 17 16 12 10 10 11 10 10 9 10 11 11 11 10 7 3 4 6 4 3 3 3 3 3 5 4 4 6 8 4 4 9 11 11 11 9 11 12 6 4 7 7 6 8 9 9 8 8 10 19 25
16 16 17 21 23 25 26 26 25 25 25 25 24 24 23 23 22 22 22 21 19 17 15 14 14 14 13 11 10 10 12 11 11 14 16 17 17 16 16 13 9 11 12 11 11 10 11 11 12 13 11 7 4 5 5 4 4 2 3 2 5 6 4 3 4 8 7 5 11 11 9 9 9 13 12 7 5 4 6 8 9 11 12 10 10 14 20 25
16 15 17 20 23 25 26 26 26 25 25 24 23 23 22 22 22 22 21 20 18 16 14 14 13 14 13 11 10 11 11 8 10 15 17 18 17 16 15 13 11 12 12 12 12 11 10 10 12 13 10 5 3 4 4 4 4 2 4 3 5 5 2 1 2 4 7 8 13 12 8 6 9 12 11 10 6 3 10 16 15 13 15 14 14 17 21 24
16 16 17 20 23 25 26 27 26 25 25 24 23 23 22 22 21 21 20 19 17 15 14 13 13 14 13 12 11 11 10 4 8 16 17 17 17 16 14 13 13 13 13 13 13 11 9 9 13 13 8 4 3 3 3 4 5 3 1 2 4 5 1 1 0 1 5 9 12 11 8 7 9 10 12 13 8 6 12 16 18 15 13 15 16 18 21 24
17 17 18 20 22 25 26 27 27 26 25 24 24 23 22 22 21 20 19 18 17 15 15 13 14 14 14 13 11 13 11 2 9 18 17 17 16 15 14 14 14 13 13 14 13 10 7 9 13 11 6 2 3 3 3 6 6 3 1 1 4 4 1 1 0 2 7 11 13 12 9 9 9 7 12 16 13 12 9 10 14 15 13 15 17 19 21 23
18 18 19 20 22 24 26 27 28 27 26 25 24 23 22 21 20 20 18 18 17 16 15 14 14 15 15 13 11 15 12 3 10 19 17 16 15 15 15 15 15 13 13 14 13 11 7 10 13 10 5 3 3 3 3 6 4 3 2 1 3 3 2 2 2 2 6 9 11 12 10 9 9 6 7 15 19 15 9 8 10 14 15 15 18 19 19 20
18 19 19 20 21 23 25 26 26 27 26 25 24 23 22 21 20 19 18 17 17 16 15 15 15 17 15 13 11 12 12 5 9 18 17 16 15 16 16 16 15 13 13 13 12 12 8 10 13 10 4 1 5 5 5 5 2 3 3 4 5 3 3 3 2 3 4 7 8 9 7 6 9 4 4 14 18 13 11 9 7 11 16 18 19 20 20 20
17 18 19 20 21 23 24 24 25 27 27 26 24 23 22 21 20 19 18 17 17 16 16 16 16 18 15 14 11 8 10 7 8 16 18 16 16 16 16 16 16 13 13 13 12 12 9 10 13 9 3 4 6 6 7 5 1 3 5 6 6 4 3 3 3 4 5 6 6 6 3 2 6 3 7 15 16 13 13 12 9 9 13 17 19 21 21 21
15 17 19 20 21 22 24 24 24 26 28 27 25 24 22 21 20 18 18 17 17 16 17 17 17 18 16 14 11 6 10 9 8 16 18 16 17 15 16 16 15 14 13 13 13 12 11 10 12 9 3 4 7 5 6 4 3 6 9 8 6 4 3 2 2 3 4 4 3 5 3 1 4 2 6 9 10 13 16 16 15 12 12 15 17 20 21 22
15 17 19 20 21 22 24 24 24 25 27 27 26 24 22 21 20 18 17 17 17 17 17 18 18 18 16 15 12 7 10 10 9 16 17 16 16 15 15 15 14 14 13 14 13 12 11 10 11 9 2 4 7 5 4 4 5 10 13 8 6 4 2 1 2 3 2 2 0 2 2 1 2 3 6 5 4 10 16 18 18 17 16 15 16 18 21 22
15 17 19 20 21 22 24 24 24 24 25 26 25 24 22 21 19 18 17 16 17 17 18 18 18 18 16 14 13 8 9 11 10 15 16 15 15 15 14 14 13 13 13 13 13 12 11 10 11 8 4 8 7 3 4 6 9 10 9 4 6 7 3 2 1 2 1 1 0 3 1 4 3 7 7 4 3 6 12 17 18 19 19 17 17 19 21 22
16 17 19 21 22 22 23 24 24 23 24 24 24 23 22 21 19 18 17 16 16 17 18 18 17 17 15 12 12 9 8 12 12 13 16 15 15 15 15 14 13 12 12 12 12 13 11 9 9 8 8 10 5 5 8 7 9 5 4 3 2 7 4 2 2 1 2 1 1 3 1 6 7 12 9 4 5 5 8 15 18 20 20 19 19 20 22 22
16 17 19 21 22 23 23 23 23 23 23 23 22 22 21 20 19 17 17 16 16 17 17 17 17 17 14 9 9 11 9 11 13 13 15 16 15 16 15 14 13 12 11 11 11 12 11 8 8 9 10 9 8 10 7 5 5 2 2 3 2 1 3 5 2 3 4 1 1 5 2 6 8 10 5 6 12 12 13 15 16 19 21 22 21 21 23 22
17 17 20 22 22 23 23 23 23 22 22 22 21 21 20 19 18 17 16 16 16 16 16 17 17 15 11 6 9 13 10 10 13 13 15 16 16 16 15 14 13 12 10 9 12 12 10 9 9 9 9 10 13 10 4 4 4 4 2 2 4 2 5 7 2 3 3 1 1 5 1 6 9 8 2 1 5 9 14 16 16 18 20 22 23 23 24 23
17 18 20 22 24 23 23 23 23 22 22 21 20 20 19 18 18 17 16 16 16 16 16 16 16 13 7 4 8 13 12 11 13 14 15 15 15 15 15 14 13 12 9 9 11 12 12 10 9 9 9 10 9 6 5 4 4 4 3 2 2 2 3 5 2 1 1 1 1 2 2 4 5 5 2 5 5 2 6 10 12 15 18 21 23 24 25 24
18 20 21 23 24 24 23 23 22 22 21 20 20 19 19 18 17 16 16 16 15 15 15 14 15 10 4 5 8 12 15 14 15 16 16 15 14 14 14 14 13 12 11 11 12 13 12 9 8 7 5 5 4 5 5 1 3 2 2 1 3 3 2 2 3 3 3 2 1 2 1 6 7 8 8 7 7 6 7 10 11 12 15 17 20 23 25 25
20 21 22 23 24 24 24 23 22 22 21 20 19 18 18 16 15 15 15 16 16 15 13 13 14 7 5 9 10 13 17 16 17 17 17 16 14 14 15 14 14 13 13 12 10 10 9 5 6 3 3 4 2 5 5 4 5 5 3 3 2 2 3 3 3 2 3 3 1 1 3 9 11 13 19 20 15 13 15 17 17 17 18 19 20 23 24 26
21 20 22 24 24 24 24 23 23 22 22 21 19 19 18 16 15 15 16 19 16 11 6 13 18 5 3 13 14 14 18 18 18 19 18 17 15 15 14 13 15 16 14 9 5 6 6 4 5 3 2 3 5 6 7 8 8 9 6 5 5 3 4 5 4 4 1 2 3 4 5 9 10 11 17 23 18 13 17 20 22 23 23 24 25 27 28 30
21 20 23 24 24 25 24 24 23 22 23 21 22 22 18 16 12 8 16 20 15 7 0 13 23 4 4 14 19 17 19 19 19 20 19 18 17 16 14 14 14 11 8 5 3 3 4 4 3 5 7 8 8 7 6 5 6 7 6 5 4 4 2 4 3 5 1 2 3 3 4 8 11 10 16 23 17 12 18 21 24 27 27 29 29 31 32 34
22 22 24 24 26 26 24 24 22 23 24 22 26 22 16 18 10 6 16 13 10 7 2 13 25 7 2 15 21 19 20 17 18 21 19 18 19 15 12 12 9 4 1 3 5 2 4 5 7 7 8 7 6 7 7 6 6 5 6 5 2 2 3 2 2 4 3 1 2 2 4 9 11 11 16 20 13 12 20 22 25 29 29 31 31 33 34 34
22 23 24 25 27 26 25 24 22 24 25 25 30 21 15 22 13 13 20 8 8 8 2 15 23 8 5 15 19 20 18 12 13 20 19 19 19 13 9 8 6 3 1 3 6 3 3 4 9 7 6 7 6 5 7 7 6 5 4 5 2 2 2 3 2 4 5 1 3 4 6 10 11 10 16 18 13 17 23 22 24 28 29 31 31 32 33 32
20 21 23 24 25 25 24 24 24 26 27 28 29 18 15 22 13 17 20 6 7 8 3 16 18 9 10 15 17 18 15 10 11 19 19 19 19 13 11 8 5 5 2 3 6 5 3 5 7 7 9 8 6 4 8 7 4 4 4 5 2 2 1 1 2 3 3 2 1 4 5 8 8 6 11 13 12 16 18 18 21 23 24 26 25 26 27 27
17 20 22 23 23 23 22 22 25 28 27 28 26 17 16 20 15 19 15 4 4 6 6 15 14 11 13 14 17 16 13 10 11 19 21 20 18 12 10 8 6 5 3 5 8 7 4 5 3 9 7 7 7 4 7 6 2 1 3 6 3 3 4 2 1 2 2 3 3 3 5 7 5 5 7 6 5 8 10 12 15 16 17 19 19 20 21 21
13 16 20 22 20 19 19 20 24 28 28 26 23 18 16 18 18 19 10 5 2 3 5 12 11 11 13 13 16 14 11 9 11 19 22 20 18 10 7 8 6 4 4 5 7 5 4 3 5 9 4 5 8 3 5 7 3 2 3 6 6 6 6 2 2 4 4 4 4 5 4 6 5 5 7 5 6 8 8 9 12 12 12 14 17 18 17 16
12 12 14 19 18 18 18 16 23 27 26 23 20 18 17 18 20 18 7 5 1 2 4 9 9 11 14 12 16 14 7 5 10 19 22 18 16 11 7 5 3 3 6 6 5 2 2 1 4 7 6 6 7 3 5 6 6 1 4 5 6 6 7 5 4 4 2 2 3 4 3 5 7 5 7 6 8 10 9 8 12 14 13 12 13 14 11 8
14 14 14 14 15 19 16 13 23 27 22 19 18 18 17 19 20 15 5 5 2 4 7 7 7 12 14 13 19 14 3 6 10 16 21 18 14 10 7 3 2 3 5 5 3 1 2 3 5 6 6 6 5 3 5 6 8 3 3 6 7 7 8 6 6 5 2 3 5 5 4 2 6 6 7 6 7 10 9 9 12 15 14 10 6 4 4 4
12 14 16 14 13 19 15 13 24 28 21 18 18 18 17 20 20 11 5 2 2 5 6 6 7 11 14 17 20 10 5 12 9 10 19 18 13 8 5 5 5 4 2 5 4 3 1 3 3 5 6 4 4 4 5 8 6 3 4 7 6 6 7 5 6 4 1 2 4 5 2 2 6 7 6 6 5 8 9 8 10 12 12 12 13 14 15 14
12 12 14 12 13 17 14 14 24 27 21 19 19 18 19 21 17 7 3 1 2 4 4 8 9 10 13 15 13 6 8 9 4 9 18 16 11 5 3 6 8 7 4 4 5 2 1 1 4 6 5 4 4 1 4 5 2 5 6 7 6 6 6 5 5 4 3 2 4 6 1 1 5 6 4 3 2 6 7 6 7 9 11 13 16 17 16 15
14 15 14 13 14 15 13 16 23 25 22 20 19 19 21 20 12 5 2 4 2 2 2 8 8 9 14 11 3 2 5 2 4 14 14 10 9 6 7 9 9 8 5 7 4 1 2 1 0 3 3 5 5 3 2 2 5 10 7 7 7 7 5 4 3 4 4 2 6 6 2 1 3 6 4 2 3 5 2 3 6 8 11 13 14 15 14 12
12 15 17 16 14 12 14 18 21 23 24 21 19 21 19 11 4 4 5 3 3 2 2 4 3 8 15 11 3 2 2 2 5 13 8 5 6 6 8 7 5 6 4 4 3 4 4 3 1 2 0 5 7 5 4 4 6 8 5 5 5 4 5 4 4 4 2 4 6 4 2 2 3 5 4 5 6 5 3 2 5 8 9 11 13 13 13 13
11 13 15 16 15 13 16 18 19 22 24 21 20 20 13 5 1 5 3 0 2 3 4 4 3 6 11 8 5 4 3 2 3 7 5 4 4 4 5 5 4 4 2 3 1 3 2 1 2 3 2 4 6 5 4 5 5 5 5 6 5 2 3 3 3 1 3 6 4 2 1 2 5 8 8 10 9 6 7 8 6 7 7 8 11 13 14 15
11 12 13 15 15 15 16 17 19 21 23 23 21 13 6 3 7 6 2 1 1 1 3 4 2 5 9 7 4 4 3 2 3 3 2 3 4 4 2 2 5 5 3 5 3 2 1 4 3 2 2 5 4 6 4 0 1 4 5 5 4 3 2 2 4 2 3 4 3 2 1 2 4 5 8 12 9 7 9 10 8 6 5 5 10 13 15 18
9 11 13 14 14 16 16 17 19 19 21 25 17 7 5 5 6 4 4 3 0 2 2 4 6 7 7 5 5 5 3 1 4 4 2 4 5 5 4 3 3 5 4 4 3 5 4 4 4 3 2 5 5 4 6 6 4 3 3 6 5 5 5 4 4 3 4 3 3 3 2 3 2 1 6 9 9 8 8 9 10 8 4 3 8 13 17 20
9 8 13 14 14 15 17 16 16 17 22 22 11 4 7 8 3 3 6 4 1 2 3 3 7 8 3 2 1 4 2 1 4 4 4 5 6 7 6 5 4 4 6 5 2 3 4 4 5 2 1 7 6 3 5 7 2 1 2 5 3 4 5 3 3 5 3 1 2 2 3 4 3 4 7 7 6 6 4 4 6 6 3 4 10 15 19 19
10 8 11 15 15 14 17 18 15 16 21 16 6 5 7 5 3 4 5 5 4 5 6 4 4 5 4 1 2 5 0 2 4 3 4 3 3 6 6 5 6 6 6 7 3 2 3 3 5 3 2 2 2 2 3 4 3 2 2 3 4 4 7 5 2 1 3 1 3 2 3 5 3 5 8 4 3 4 2 2 3 7 6 7 13 17 17 17
13 10 10 13 15 13 16 19 16 16 17 10 6 7 3 1 3 3 2 4 7 9 9 5 2 4 5 3 5 6 2 2 4 3 4 3 2 5 6 4 7 9 7 5 2 3 5 1 4 1 1 2 2 4 5 4 4 5 3 5 4 2 5 4 1 3 4 2 4 1 4 4 1 3 7 5 3 2 1 3 7 9 8 11 16 16 16 17
14 13 11 11 13 13 15 16 15 16 13 6 6 7 1 1 2 1 1 4 7 7 6 5 3 3 5 5 5 6 4 4 5 4 4 3 4 6 8 5 6 11 11 5 2 3 5 2 4 1 2 3 3 4 3 5 4 4 5 4 4 3 1 2 2 1 1 2 4 4 3 3 4 5 3 1 4 4 4 4 6 9 12 15 16 16 15 16
14 13 10 11 12 13 13 13 12 13 8 5 8 7 1 1 2 1 2 2 4 5 4 5 3 2 4 6 5 5 4 5 7 5 4 4 4 5 9 6 4 11 15 7 3 3 4 3 2 2 1 1 3 2 4 0 4 4 4 3 3 2 4 3 2 3 3 2 3 4 4 3 6 6 5 7 7 7 7 5 5 9 13 14 15 16 15 14
13 9 8 13 14 11 12 13 11 8 4 4 6 3 1 1 1 1 2 2 2 3 3 4 4 4 4 3 3 5 4 4 7 5 3 5 5 4 7 7 4 7 11 6 3 3 3 3 3 1 3 1 2 3 7 7 4 3 3 4 2 1 3 2 1 3 4 4 2 2 4 5 6 4 8 9 7 9 9 8 7 9 12 13 14 15 13 12
13 5 5 15 17 14 15 12 7 4 2 1 2 1 1 1 1 1 2 4 3 3 2 4 4 5 5 4 3 5 4 4 6 5 3 5 5 3 7 10 8 8 6 3 2 4 2 3 4 2 0 4 4 4 4 6 6 6 6 7 6 4 4 3 2 1 2 3 4 3 4 7 5 3 6 7 6 10 11 12 12 10 11 12 13 14 11 11
12 3 6 17 19 19 17 9 2 2 1 1 2 1 1 1 1 1 2 3 3 3 3 3 3 3 4 4 3 5 6 4 5 6 4 6 7 4 5 10 15 16 11 4 3 4 3 4 5 2 3 6 5 4 1 2 3 4 3 4 5 4 5 6 5 3 1 1 2 3 2 7 5 1 2 4 7 12 14 15 13 9 9 11 12 10 8 11
9 4 9 18 20 21 16 4 2 4 1 2 3 1 1 1 1 1 1 1 2 3 3 1 1 1 2 2 3 6 7 5 5 6 4 4 5 5 5 11 16 15 11 4 2 4 3 4 4 1 3 4 5 5 3 2 3 2 1 2 5 3 3 5 5 4 3 3 3 3 3 7 6 3 1 2 8 14 15 13 10 8 9 9 7 4 9 16
8 6 9 16 19 19 12 3 3 5 3 3 3 0 1 1 1 2 1 1 1 2 2 1 0 1 1 2 3 6 6 4 5 6 3 2 4 4 6 13 15 11 7 6 7 8 5 2 4 3 2 3 4 4 3 2 2 3 3 2 5 5 6 4 2 3 2 5 7 5 5 7 6 4 2 4 5 8 10 8 7 7 8 6 5 10 16 20
7 5 5 13 18 15 8 3 3 4 4 5 3 3 2 2 3 4 3 1 3 3 2 1 0 2 2 2 3 2 3 2 3 4 3 1 2 1 3 10 15 12 8 8 12 14 8 3 5 6 5 6 6 5 4 4 3 1 2 5 6 7 9 5 3 3 4 6 7 6 7 5 3 3 1 2 2 5 6 4 4 4 5 8 14 20 24 24
4 2 2 7 11 8 4 3 3 4 5 6 3 3 6 3 2 5 6 3 3 4 2 1 2 3 2 2 3 2 2 1 1 3 4 3 3 1 2 4 12 13 8 8 15 14 4 2 6 8 9 11 8 5 4 8 7 5 6 8 7 8 10 7 4 5 7 3 3 8 8 5 5 4 6 6 4 5 4 2 3 6 12 17 21 24 25 23
2 1 3 4 4 4 3 3 4 3 5 8 5 3 8 7 1 3 6 5 6 8 3 2 3 3 2 3 3 1 3 1 3 3 4 3 2 1 2 3 4 6 5 9 15 11 4 3 7 7 9 8 5 5 6 8 11 11 10 11 10 10 11 9 8 10 6 4 6 10 6 7 11 7 7 9 5 3 3 7 9 12 17 20 21 19 16 14
1 0 3 4 2 2 3 4 5 3 3 6 4 3 7 9 4 4 5 3 4 8 5 0 3 5 5 6 4 2 3 2 0 2 3 2 1 1 2 3 4 3 3 5 8 7 4 5 6 5 7 5 2 4 7 8 8 8 10 12 12 12 13 13 15 15 9 7 13 9 9 12 14 7 8 11 5 1 3 7 10 13 15 16 14 11 9 8
2 0 1 2 2 0 0 4 7 4 3 5 4 4 8 10 9 6 3 3 2 5 6 3 4 6 6 6 5 3 4 4 3 2 2 2 2 2 2 1 2 3 4 3 2 2 3 4 3 5 6 4 2 4 6 8 6 4 7 11 11 14 16 17 18 17 12 11 11 3 6 13 10 6 9 11 5 2 2 7 12 12 8 7 6 6 7 6
3 2 1 2 2 2 2 5 7 4 3 4 4 4 6 10 12 8 4 5 5 3 5 6 5 6 7 6 6 4 5 6 5 3 4 3 2 2 2 3 1 3 4 2 1 1 2 2 1 5 4 4 3 4 4 6 7 5 5 6 9 13 15 16 15 10 6 8 10 4 6 12 7 10 12 15 11 5 3 7 9 5 3 3 4 6 6 6
6 3 2 3 1 1 1 3 4 4 3 4 5 4 4 8 11 8 4 6 8 5 6 9 6 5 4 5 6 7 8 8 7 5 7 6 4 3 2 3 5 3 3 1 1 3 1 1 2 4 3 5 3 5 4 5 5 1 4 8 11 11 10 10 9 6 7 10 11 7 9 12 6 11 10 11 10 7 8 7 5 3 4 4 5 5 4 3
12 6 3 2 1 0 2 2 2 4 4 6 6 3 2 3 6 7 5 6 10 11 12 12 8 5 3 6 10 13 13 10 7 6 8 6 5 5 4 4 7 6 3 3 2 2 2 3 2 3 4 2 0 6 6 6 5 2 9 12 12 10 7 4 3 5 10 11 8 8 11 11 4 8 6 3 5 7 9 8 7 6 7 6 5 4 3 2
Wind_Direction
200 194 192 190 186 182 181 181 177 175 176 176 178 180 179 176 176 177 178 180 185 190 192 195 193 188 186 191 197 197 196 196 199 200 196 190 184 179 178 176 181 190 195 192 186 185 183 180 184 178 177 176 170 179 172 175 177 141 98 101 165 177 186 184 177 195 180 178 191 182 171 155 144 159 167 173 173 172 175 200 206 205 223 215 210 194 177 177
197 191 192 191 188 184 182 180 177 176 174 174 178 181 179 175 175 178 180 184 189 192 193 193 190 186 184 189 196 198 194 193 198 198 192 185 180 180 180 178 181 191 191 185 181 183 180 177 179 175 172 168 160 175 176 185 156 115 100 104 216 204 192 192 190 201 191 174 178 174 172 165 161 159 160 166 163 165 176 207 206 208 209 196 199 187 178 179
197 194 194 192 190 185 183 180 177 177 174 172 178 181 178 175 177 179 182 187 191 194 194 191 189 185 183 188 196 196 190 190 199 195 186 182 180 181 185 187 188 188 186 179 174 172 173 175 175 171 164 157 152 167 169 172 167 136 107 107 240 216 200 221 203 203 217 195 164 163 173 169 168 165 166 172 159 173 202 203 200 205 203 192 182 179 180 182
196 197 196 194 191 188 184 179 177 177 174 173 178 182 180 177 179 181 184 187 192 194 191 189 187 185 184 188 193 192 182 185 204 192 180 181 181 180 184 189 187 183 181 172 168 163 166 172 172 168 158 148 139 163 178 173 181 160 128 172 225 194 165 230 186 211 233 197 166 160 160 168 177 175 177 161 139 248 232 213 211 213 206 193 180 180 185 187
198 199 197 194 192 190 187 180 177 178 175 175 179 183 182 181 183 184 185 188 192 192 189 188 186 185 186 187 191 182 165 158 202 188 177 180 182 182 182 183 180 178 175 169 167 162 163 171 169 164 155 146 130 145 200 168 147 129 152 229 183 154 129 220 8 173 191 171 161 154 156 178 177 183 192 171 160 228 234 228 226 227 221 209 196 186 188 192
200 197 196 195 193 192 190 183 178 178 176 177 181 185 184 185 186 186 189 190 190 188 187 186 184 186 187 189 187 176 169 157 187 181 176 178 181 185 183 178 176 176 176 172 170 167 166 171 167 160 142 120 150 152 174 165 148 132 250 276 156 175 198 151 66 144 158 159 163 165 174 179 167 192 206 193 206 223 238 253 238 233 231 221 209 193 191 196
198 195 197 195 194 194 193 188 181 179 178 179 183 187 188 189 190 191 192 190 188 185 184 185 184 187 189 189 182 181 194 214 173 177 178 178 180 184 181 176 176 179 180 176 176 176 171 170 167 159 129 89 174 171 140 154 143 118 164 201 141 182 208 145 104 147 172 174 173 174 180 182 176 190 209 212 226 230 244 265 240 231 225 218 211 203 201 201
196 196 197 195 194 195 196 194 186 181 181 183 186 190 191 192 194 194 193 190 186 183 183 184 185 188 189 189 183 187 205 203 169 179 181 181 181 179 177 175 179 184 182 182 185 181 173 170 171 166 143 141 184 165 137 129 79 97 153 176 137 128 172 158 113 126 164 171 168 171 175 191 193 192 227 227 230 228 231 236 226 221 217 215 214 213 210 207
198 197 197 195 193 194 196 198 192 185 184 185 188 191 193 194 196 195 192 189 185 183 184 184 186 188 189 189 184 187 197 190 179 183 180 181 180 175 175 176 182 186 183 185 188 185 178 170 174 176 184 196 168 149 147 137 251 184 144 151 138 104 128 148 146 130 142 155 158 169 159 167 189 221 264 242 236 228 224 225 224 218 213 215 217 218 217 215
200 198 197 195 193 193 195 198 197 190 187 187 189 191 192 195 196 195 192 188 185 185 184 184 185 187 189 188 183 181 188 187 184 183 180 179 178 175 175 177 182 186 185 185 185 185 181 176 180 177 171 173 148 129 147 145 206 170 125 108 97 88 110 118 163 152 151 159 158 180 192 165 165 208 259 244 236 225 223 225 228 228 223 220 220 222 223 224
201 199 196 194 192 193 193 195 197 194 191 189 188 189 191 193 195 194 192 189 187 186 186 186 184 186 189 189 188 185 185 187 179 178 181 180 178 178 178 179 182 184 187 186 181 179 179 180 180 175 173 160 143 111 122 137 153 145 125 94 33 36 90 39 135 157 153 155 147 157 192 285 140 204 241 231 223 219 221 224 225 229 233 231 228 227 227 228
201 200 196 194 192 192 192 193 195 196 195 191 188 187 189 192 194 194 191 189 189 187 187 186 183 186 188 191 199 194 185 190 178 174 181 182 181 182 182 182 182 184 187 185 178 172 170 169 172 181 174 152 146 99 117 129 128 127 117 102 348 7 24 343 96 168 161 131 144 103 351 298 225 225 232 206 201 207 217 223 227 231 235 236 234 232 230 230
202 200 197 193 191 192 192 191 192 195 197 194 189 186 188 192 192 192 191 189 190 189 187 185 184 186 186 192 200 188 178 187 181 175 180 182 182 184 184 183 181 181 184 183 178 171 165 162 168 175 157 147 136 116 130 115 113 115 73 100 7 7 356 318 34 200 172 125 203 116 257 281 259 242 233 219 234 225 217 223 228 234 238 237 234 234 234 233
206 203 198 192 191 192 192 190 190 192 197 196 191 188 190 191 191 191 189 188 190 189 187 185 183 185 187 194 194 183 171 175 182 180 181 182 181 183 183 179 176 175 178 181 180 176 169 162 164 156 144 141 125 119 111 57 74 87 35 51 37 56 270 305 6 169 154 200 225 113 152 260 275 273 259 244 247 245 241 233 232 236 239 239 237 237 238 237
211 206 198 193 190 190 191 190 188 190 195 197 193 191 191 191 191 189 186 187 188 187 186 184 183 183 189 201 193 188 182 177 182 181 180 181 180 181 178 174 174 172 173 175 176 176 170 166 160 139 124 130 126 113 58 16 32 40 86 319 344 160 264 311 354 163 156 207 155 106 185 264 278 283 12 22 257 245 247 243 238 239 239 240 240 240 243 244
214 205 197 193 189 187 189 189 187 188 192 196 194 192 193 192 190 187 185 185 183 184 183 182 183 179 181 200 194 190 189 185 179 177 179 178 178 178 174 173 174 173 170 166 168 168 167 161 143 121 117 128 123 99 60 39 357 7 102 201 281 179 274 314 344 325 105 153 58 87 210 266 291 260 137 40 1 326 259 250 243 242 243 242 243 244 247 249
216 204 196 192 188 186 185 186 187 186 189 193 191 191 192 191 188 184 181 179 179 179 178 178 178 178 201 207 190 188 187 182 175 174 174 173 176 177 173 172 171 173 168 157 158 160 162 152 132 124 103 107 103 92 90 25 279 302 50 142 228 196 204 283 297 328 44 102 300 19 237 250 279 274 264 290 313 313 289 275 263 252 250 249 248 249 249 251
216 203 194 190 188 184 182 184 185 183 185 186 187 188 187 186 181 177 175 173 168 163 169 176 168 167 235 210 190 186 185 177 171 171 171 171 172 172 173 171 168 166 154 145 153 157 154 130 120 131 44 63 103 106 132 212 196 188 181 157 216 216 205 246 253 273 43 65 267 1 289 262 272 283 279 279 286 291 285 281 277 270 263 258 254 252 252 253
213 200 192 188 185 182 180 181 180 179 179 179 180 176 173 168 162 163 166 165 159 149 166 185 174 158 269 196 185 183 179 173 171 171 171 170 167 168 168 166 165 158 145 136 151 157 141 99 93 119 121 155 187 160 169 198 173 170 174 149 158 175 226 244 248 270 76 99 256 235 243 268 275 283 280 277 282 287 281 278 275 270 267 264 260 257 257 257
208 195 189 184 181 179 179 179 178 176 174 173 172 165 158 151 137 149 167 166 167 164 266 188 184 208 352 177 178 175 171 169 173 173 172 173 168 163 157 156 158 149 141 142 154 153 123 127 159 181 188 191 189 163 144 148 137 139 128 111 147 163 225 248 264 306 36 133 260 247 247 272 271 272 273 275 283 284 273 271 267 264 262 261 261 261 261 261
196 187 183 179 176 176 176 177 178 174 170 170 170 165 160 159 145 163 172 172 183 186 294 187 187 223 328 172 173 168 164 166 175 177 174 174 169 163 155 151 145 128 152 131 121 109 100 152 209 212 195 175 157 143 116 98 90 97 122 123 129 173 214 241 248 321 15 120 264 351 321 274 263 268 270 271 276 266 259 258 260 262 261 261 261 261 263 265
181 178 177 176 174 173 173 173 175 173 169 170 171 168 171 174 173 174 169 168 187 187 245 184 185 210 181 169 169 165 162 159 176 181 177 173 171 172 166 146 129 138 199 98 105 81 82 196 232 215 162 110 99 117 103 91 87 81 110 127 133 201 243 288 300 341 17 48 271 344 333 278 263 262 265 263 255 258 262 259 261 264 264 265 264 264 267 269
166 167 168 171 170 169 169 169 173 173 171 172 173 170 174 179 181 172 165 147 172 182 188 178 184 192 168 166 169 166 163 155 173 183 178 175 175 173 164 143 119 135 142 146 143 131 146 247 240 175 141 112 91 95 98 88 82 88 109 129 166 241 184 245 294 337 13 70 274 313 308 283 282 281 274 270 257 262 269 266 265 266 265 268 268 268 271 273
151 157 161 164 163 165 167 170 174 173 172 172 175 177 178 181 177 166 158 90 152 183 181 180 188 188 170 167 173 174 171 165 174 181 180 178 174 168 166 148 119 132 164 167 148 150 195 262 163 130 124 119 114 113 122 120 84 39 139 140 165 212 173 177 303 348 3 27 25 356 320 292 317 331 295 299 290 274 283 282 276 271 267 271 273 271 273 276
143 151 157 159 158 163 167 171 173 172 171 172 178 185 181 180 172 163 149 56 134 193 184 186 195 194 181 174 178 176 169 170 175 178 180 180 173 161 157 150 135 160 178 142 128 155 226 267 136 125 90 102 115 140 172 151 143 292 223 175 175 177 163 154 38 51 37 359 351 25 0 289 320 326 278 310 340 313 313 301 289 293 291 284 282 282 282 279
159 154 158 160 159 162 165 170 171 170 170 173 181 184 181 178 167 162 144 49 256 215 168 182 190 191 189 182 173 160 154 188 182 179 179 179 177 162 146 141 109 160 168 140 124 166 225 39 113 129 119 108 101 130 196 151 125 215 236 176 153 132 127 128 93 71 78 271 321 49 102 265 311 308 274 312 332 314 318 309 307 324 328 313 296 293 294 278
165 170 167 161 162 162 160 169 172 170 169 175 180 177 178 174 163 160 126 35 275 185 150 174 179 181 186 178 167 156 150 177 166 178 178 176 181 169 159 170 85 139 166 134 129 221 163 87 62 87 102 110 115 159 200 141 122 205 225 135 122 117 125 131 98 84 195 242 330 18 107 242 297 275 271 321 331 317 325 318 321 340 354 0 357 1 38 69
157 170 161 157 174 168 163 175 175 171 170 172 173 170 171 168 161 153 114 58 216 147 145 176 165 172 176 170 170 161 136 151 146 180 179 173 178 165 167 193 143 136 141 125 172 251 115 144 160 119 94 121 174 207 181 128 106 232 196 121 120 121 121 114 94 88 17 17 320 319 73 201 272 276 300 346 335 308 314 306 313 340 7 34 55 66 67 69
166 167 153 159 181 174 171 179 175 174 172 164 163 165 161 160 157 131 91 195 169 110 137 160 156 170 166 159 170 156 134 147 131 166 171 169 174 156 136 167 134 109 52 81 161 225 54 185 200 142 126 176 199 226 161 129 95 169 142 98 79 72 78 76 85 98 44 29 253 268 325 185 268 288 309 359 300 263 280 284 298 339 16 42 54 60 61 61
171 174 173 177 175 175 182 177 176 178 172 159 155 155 151 151 147 120 175 216 150 90 120 151 162 169 156 146 149 141 136 134 115 141 154 162 164 134 114 130 116 101 37 35 91 244 332 15 44 105 140 171 143 87 95 116 133 136 113 72 60 34 34 47 49 79 61 321 253 254 281 158 268 285 263 219 226 218 233 301 311 348 30 49 55 58 55 52
167 174 187 187 172 179 188 177 176 181 176 163 149 147 145 138 114 144 193 205 115 100 97 146 174 157 157 156 147 155 108 42 137 142 144 148 145 127 120 125 96 84 45 33 48 329 358 52 4 339 147 131 106 70 44 56 107 115 88 82 80 3 10 26 1 38 92 258 261 260 268 163 219 266 261 243 249 225 198 245 294 327 8 45 56 54 49 49
175 176 185 186 181 188 187 178 175 178 180 171 155 154 145 111 185 191 200 196 137 183 170 170 211 166 162 149 124 149 117 83 170 152 146 146 150 161 151 164 153 107 139 175 136 345 27 38 305 331 256 168 113 79 49 21 41 79 89 96 88 10 9 359 314 345 213 242 270 270 242 201 229 251 260 261 261 238 226 232 256 310 338 32 48 48 52 60
187 187 185 185 190 193 184 176 174 176 179 173 163 158 124 124 205 196 189 248 190 194 148 135 131 148 151 139 141 160 111 125 190 152 135 133 152 197 223 186 147 120 175 178 124 108 336 311 300 67 270 220 154 123 132 223 104 120 129 125 120 119 103 266 266 287 259 258 293 288 263 258 267 265 246 250 257 244 243 248 264 307 322 8 37 53 68 73
186 191 195 191 191 195 189 177 174 175 172 168 164 142 124 184 204 148 153 210 232 42 71 104 110 126 140 143 177 175 95 125 182 137 121 125 146 199 227 224 156 96 113 143 140 164 172 277 226 165 200 195 179 168 155 145 143 168 154 129 139 154 155 206 220 210 240 276 307 293 270 197 200 259 228 241 269 272 258 254 261 277 287 359 45 70 81 78
187 187 201 197 188 192 191 180 176 173 168 166 159 145 177 197 204 137 168 186 162 56 43 75 114 130 149 73 195 203 130 170 179 131 151 166 171 193 193 199 191 130 132 157 202 168 153 246 254 298 168 161 171 206 134 112 106 239 124 108 155 183 141 135 181 173 172 308 304 255 237 214 205 276 270 263 292 298 267 251 253 234 201 76 71 84 84 76
196 189 199 199 190 186 186 184 179 174 172 166 155 189 201 201 182 180 169 144 147 134 106 81 95 133 172 122 200 232 262 118 157 147 185 195 200 199 192 196 190 177 162 157 171 158 143 258 298 352 19 131 143 179 116 117 172 168 127 174 213 173 113 112 207 69 83 227 271 219 244 293 323 298 299 320 359 345 344 49 102 155 153 84 85 92 81 69
198 196 200 198 191 184 181 184 182 179 179 173 181 201 203 105 174 182 148 127 139 137 128 137 154 154 170 170 191 204 182 117 153 166 186 196 234 197 193 223 194 186 188 154 160 200 152 203 310 42 137 317 23 100 69 49 112 125 173 206 193 120 90 105 182 6 45 243 275 272 232 284 333 276 314 359 52 22 51 74 90 123 117 84 91 92 74 67
194 199 204 198 195 191 182 179 177 176 175 175 208 214 150 82 206 187 148 141 131 126 133 161 166 144 166 180 188 184 170 164 172 178 174 191 244 195 173 203 194 188 200 171 120 205 142 134 305 10 156 296 8 100 84 16 53 122 169 164 120 136 164 92 143 170 128 238 281 304 272 253 205 223 300 38 143 147 139 110 97 108 98 90 93 87 79 80
188 191 201 205 203 198 192 188 176 164 165 187 209 220 179 132 227 182 135 125 117 124 153 178 165 117 169 173 164 170 181 176 171 179 177 184 238 205 174 186 185 190 199 177 130 190 141 138 254 308 258 300 20 128 192 218 37 64 103 107 83 132 163 158 151 159 171 199 266 308 320 269 229 216 200 195 185 160 143 133 126 112 98 94 94 90 91 89
179 173 192 203 202 199 195 196 186 165 176 207 195 206 240 112 224 184 125 102 76 104 163 190 163 141 165 162 154 174 178 166 169 185 207 187 211 233 198 189 162 179 189 161 120 169 131 149 205 308 339 210 192 216 190 170 148 111 128 160 174 90 107 154 151 116 141 162 191 278 300 270 248 216 200 203 184 161 156 150 149 125 105 104 104 102 99 87
172 158 181 187 192 196 187 183 183 170 182 209 139 147 219 116 53 33 95 108 76 60 111 153 150 149 154 150 178 183 157 146 172 185 214 200 200 227 211 193 159 145 154 127 147 179 146 153 168 145 193 201 227 255 195 175 174 168 180 187 178 154 123 149 236 270 115 148 170 187 265 264 251 208 208 213 183 171 161 146 145 131 112 115 114 107 94 69
171 173 169 172 183 189 179 170 172 144 126 185 160 152 167 121 98 103 93 94 73 50 68 94 113 138 156 158 166 165 153 158 182 189 205 206 197 198 208 193 168 156 157 160 184 172 120 109 129 154 215 216 248 281 214 177 138 126 188 194 165 153 132 149 204 228 154 168 152 129 256 267 269 282 242 221 173 162 149 136 138 133 121 123 121 106 65 24
169 162 160 168 178 177 167 160 191 168 185 200 166 149 164 121 105 141 110 67 59 53 59 67 87 121 171 163 148 164 170 172 184 194 200 200 204 206 189 179 170 162 160 165 170 154 122 105 125 167 305 305 315 336 18 53 94 116 241 166 147 170 143 146 178 173 164 193 152 109 262 264 282 333 358 146 142 145 143 133 129 130 129 124 114 73 8 360
142 128 151 170 177 172 166 185 192 176 185 158 142 186 251 245 176 154 142 140 140 100 93 120 82 124 163 126 135 174 184 181 195 202 190 181 204 198 170 173 173 166 172 185 176 171 181 153 128 127 22 357 336 333 327 285 187 184 218 171 160 149 108 100 128 119 198 216 170 161 234 252 285 333 56 109 123 150 158 141 111 104 109 91 31 0 355 358
126 113 146 177 182 180 185 211 172 163 164 153 162 184 183 267 243 191 176 159 161 145 122 163 168 96 117 92 82 148 168 151 181 185 166 188 215 157 149 182 184 182 195 194 169 163 176 189 146 149 172 192 205 216 213 198 170 189 203 180 177 155 143 156 135 129 230 225 166 186 233 248 293 319 227 184 183 203 204 171 119 82 44 7 351 348 351 358
136 132 136 181 197 207 227 223 177 165 169 166 175 180 174 200 252 189 183 189 189 167 112 88 141 83 65 97 95 144 186 49 74 162 165 191 224 311 44 179 188 192 198 179 164 154 140 210 182 181 200 204 201 201 163 133 147 205 205 179 184 179 173 167 132 176 214 187 171 224 232 241 253 234 234 241 210 214 255 8 55 17 357 344 340 341 347 355
119 191 151 158 217 238 265 251 206 180 169 170 174 181 181 190 221 176 187 202 194 179 144 55 157 152 163 162 126 159 192 77 65 143 156 167 205 304 20 86 150 182 179 166 167 152 103 221 203 197 216 219 197 192 177 152 174 198 193 182 187 185 177 173 190 213 192 123 243 235 187 228 244 214 219 246 239 250 327 35 28 357 339 328 329 338 345 348
136 99 152 146 173 212 239 224 192 180 169 170 177 175 177 186 190 181 189 191 175 176 170 4 199 186 172 162 153 162 170 143 111 176 155 139 122 38 24 50 71 96 125 158 170 147 130 208 203 180 211 233 195 185 185 175 185 193 186 189 188 182 182 189 209 219 184 182 242 227 159 221 241 193 205 234 218 173 33 29 350 323 313 312 321 334 336 326
197 206 149 156 153 97 270 163 158 166 185 176 181 176 174 186 193 193 170 112 147 194 186 193 210 193 177 160 149 161 179 175 188 205 158 127 125 109 100 115 79 63 82 124 155 119 145 206 193 159 191 229 199 180 178 170 172 188 194 194 187 187 193 198 212 221 206 214 250 224 173 240 246 174 214 237 207 149 331 313 298 295 300 307 309 307 305 304
212 225 159 132 110 52 64 138 151 167 191 191 208 201 182 187 192 195 175 153 175 200 188 198 195 163 170 174 164 191 211 175 157 190 185 155 165 180 165 178 160 46 49 92 79 41 155 210 121 126 171 239 207 161 149 151 158 181 210 209 197 197 203 211 218 218 202 234 260 256 251 269 245 173 211 244 244 236 243 254 262 270 275 259 243 251 265 276
208 213 143 116 79 64 103 118 144 164 184 200 205 195 194 204 196 187 190 198 194 177 180 196 178 131 159 187 188 213 214 178 160 174 172 160 168 186 185 179 156 102 41 95 79 29 99 167 43 93 164 245 219 147 125 84 83 92 253 230 207 200 207 216 216 198 186 218 239 241 253 266 224 166 193 235 229 190 161 179 205 198 195 203 199 206 230 257
209 217 199 151 54 177 157 93 137 181 200 209 206 185 169 204 187 170 184 219 208 202 208 201 170 135 157 185 207 223 217 207 219 218 199 208 250 256 246 197 161 141 116 123 101 27 103 120 88 124 172 248 95 130 122 76 61 276 249 224 206 205 208 177 156 208 206 204 210 218 235 250 199 144 163 202 177 161 155 166 188 187 164 144 136 135 104 59
Height
1466 1467 1469 1471 1472 1473 1474 1475 1477 1480 1482 1484 1486 1489 1491 1492 1494 1496 1497 1500 1502 1504 1506 1507 1507 1508 1509 1509 1510 1510 1511 1511 1512 1512 1513 1514 1515 1517 1518 1520 1521 1522 1523 1523 1524 1525 1525 1526 1527 1528 1529 1530 1532 1532 1533 1534 1534 1535 1539 1543 1544 1548 1546 1542 1544 1544 1541 1539 1539 1540 1539 1541 1543 1544 1545 1546 1547 1547 1548 1548 1549 1549 1548 1548 1548 1548 1548 1549
1465 1466 1468 1470 1471 1473 1474 1475 1477 1479 1481 1483 1486 1489 1491 1492 1493 1495 1497 1500 1502 1504 1505 1505 1506 1507 1508 1508 1509 1510 1510 1511 1511 1512 1512 1514 1515 1516 1518 1519 1520 1521 1522 1523 1524 1524 1525 1525 1526 1527 1528 1530 1531 1532 1533 1533 1534 1536 1541 1543 1543 1545 1541 1539 1540 1540 1539 1538 1537 1539 1540 1540 1542 1543 1544 1546 1547 1548 1548 1548 1548 1548 1548 1548 1548 1548 1548 1549
1465 1466 1467 1469 1471 1473 1474 1475 1477 1479 1481 1482 1486 1489 1490 1491 1493 1495 1497 1499 1501 1503 1503 1504 1505 1506 1507 1508 1509 1510 1510 1511 1511 1511 1512 1513 1514 1516 1517 1518 1520 1521 1522 1523 1523 1524 1525 1525 1526 1527 1528 1529 1531 1532 1533 1533 1534 1535 1539 1541 1540 1540 1539 1538 1538 1538 1538 1537 1537 1539 1540 1541 1542 1543 1544 1545 1547 1548 1548 1547 1547 1547 1547 1548 1548 1548 1548 1549
1464 1465 1467 1468 1470 1472 1474 1475 1476 1478 1480 1482 1485 1488 1490 1491 1493 1495 1497 1499 1500 1502 1502 1503 1504 1505 1506 1507 1509 1509 1510 1511 1510 1510 1511 1512 1514 1515 1516 1518 1519 1520 1521 1522 1523 1524 1525 1525 1526 1527 1528 1529 1531 1532 1533 1533 1534 1535 1537 1539 1538 1538 1538 1538 1537 1538 1537 1537 1538 1539 1541 1542 1542 1543 1543 1544 1547 1548 1546 1545 1546 1546 1546 1547 1548 1548 1548 1549
1463 1465 1466 1468 1469 1472 1473 1474 1476 1477 1479 1481 1485 1487 1489 1491 1492 1494 1496 1498 1499 1500 1501 1502 1503 1504 1506 1507 1508 1509 1510 1511 1509 1509 1511 1512 1513 1515 1516 1517 1518 1520 1521 1522 1523 1524 1525 1525 1526 1527 1528 1529 1531 1532 1533 1533 1533 1535 1537 1537 1537 1538 1538 1537 1537 1537 1537 1538 1539 1540 1541 1541 1542 1543 1543 1543 1544 1544 1543 1543 1544 1545 1546 1546 1547 1547 1548 1549
1462 1463 1465 1467 1469 1471 1473 1474 1475 1477 1479 1481 1484 1487 1488 1490 1492 1493 1495 1497 1498 1499 1500 1501 1502 1504 1505 1506 1508 1508 1509 1509 1507 1508 1510 1511 1513 1514 1515 1517 1518 1520 1521 1522 1523 1524 1525 1525 1526 1527 1527 1529 1531 1532 1532 1533 1533 1534 1537 1537 1537 1538 1538 1538 1538 1537 1537 1538 1538 1539 1540 1541 1542 1542 1542 1542 1541 1541 1542 1543 1543 1545 1546 1546 1546 1547 1547 1548
1461 1462 1464 1466 1468 1470 1472 1474 1475 1476 1478 1481 1483 1486 1488 1490 1491 1492 1494 1496 1497 1498 1499 1500 1502 1503 1505 1506 1507 1507 1507 1506 1506 1508 1509 1511 1512 1513 1515 1516 1518 1519 1520 1521 1522 1523 1524 1525 1525 1526 1528 1529 1531 1531 1532 1532 1533 1534 1537 1537 1537 1538 1538 1538 1538 1538 1538 1538 1538 1539 1540 1541 1541 1542 1542 1540 1539 1540 1542 1542 1542 1543 1545 1546 1546 1546 1546 1547
1460 1461 1463 1465 1467 1469 1471 1473 1474 1476 1478 1480 1483 1485 1487 1489 1490 1492 1493 1495 1496 1497 1498 1500 1502 1503 1505 1506 1506 1507 1507 1506 1506 1507 1509 1510 1511 1513 1514 1516 1517 1519 1520 1521 1521 1523 1524 1524 1525 1526 1528 1529 1529 1531 1531 1532 1533 1534 1535 1536 1537 1538 1538 1538 1538 1538 1539 1539 1540 1540 1540 1541 1541 1542 1542 1539 1538 1540 1541 1541 1542 1542 1543 1544 1545 1546 1546 1547
1459 1461 1462 1464 1466 1469 1471 1473 1474 1475 1477 1480 1482 1484 1486 1488 1490 1491 1493 1494 1495 1496 1498 1499 1501 1503 1504 1505 1506 1506 1506 1506 1506 1507 1509 1510 1511 1512 1513 1515 1517 1519 1520 1521 1521 1522 1523 1524 1525 1526 1527 1528 1529 1530 1531 1532 1534 1534 1534 1536 1537 1538 1538 1539 1539 1539 1539 1540 1540 1540 1541 1542 1542 1543 1540 1537 1538 1539 1540 1541 1541 1541 1542 1542 1543 1544 1545 1546
1458 1460 1462 1463 1465 1468 1470 1472 1473 1475 1477 1479 1482 1484 1486 1487 1489 1490 1492 1494 1495 1496 1497 1499 1501 1503 1504 1504 1505 1505 1505 1505 1506 1507 1508 1509 1511 1512 1513 1515 1516 1518 1519 1520 1521 1522 1523 1524 1525 1526 1527 1528 1529 1530 1531 1532 1533 1533 1534 1536 1537 1538 1539 1539 1540 1540 1540 1540 1540 1541 1542 1542 1543 1544 1539 1536 1537 1538 1539 1540 1540 1541 1541 1541 1542 1543 1544 1544
1457 1459 1461 1462 1465 1467 1469 1471 1473 1475 1477 1478 1481 1483 1485 1487 1488 1490 1491 1493 1494 1495 1497 1498 1500 1502 1503 1504 1504 1504 1504 1505 1506 1506 1508 1509 1510 1511 1513 1515 1516 1518 1519 1519 1521 1522 1523 1523 1525 1526 1527 1528 1529 1531 1531 1531 1532 1533 1534 1536 1538 1538 1539 1540 1540 1540 1540 1540 1540 1540 1541 1542 1543 1542 1537 1536 1536 1537 1538 1538 1539 1540 1540 1541 1541 1542 1542 1543
1456 1458 1460 1461 1463 1465 1468 1470 1472 1474 1477 1478 1480 1482 1484 1486 1487 1489 1491 1492 1494 1495 1496 1498 1500 1501 1503 1503 1503 1503 1503 1504 1505 1506 1507 1508 1510 1511 1513 1514 1516 1517 1518 1519 1520 1521 1523 1523 1524 1526 1526 1528 1529 1531 1531 1532 1533 1534 1535 1537 1539 1539 1539 1540 1540 1541 1540 1540 1540 1540 1541 1541 1541 1538 1535 1536 1536 1536 1537 1537 1538 1539 1539 1540 1540 1541 1541 1541
1455 1457 1458 1460 1462 1464 1466 1469 1471 1474 1476 1478 1479 1481 1483 1485 1487 1488 1490 1492 1493 1495 1496 1498 1499 1501 1502 1502 1502 1503 1503 1504 1505 1506 1507 1508 1510 1511 1512 1514 1515 1517 1518 1519 1520 1521 1522 1523 1524 1525 1526 1527 1529 1530 1531 1533 1534 1535 1538 1539 1541 1541 1540 1540 1540 1541 1540 1541 1540 1541 1543 1540 1536 1535 1534 1535 1535 1535 1537 1537 1537 1538 1538 1539 1539 1539 1540 1540
1454 1455 1457 1459 1461 1463 1465 1468 1470 1473 1475 1477 1479 1480 1482 1484 1486 1487 1489 1491 1493 1494 1496 1498 1499 1500 1502 1502 1502 1502 1503 1503 1505 1506 1507 1508 1509 1511 1512 1514 1515 1516 1517 1519 1520 1521 1522 1524 1525 1525 1527 1528 1529 1530 1532 1535 1536 1539 1541 1543 1548 1546 1541 1540 1541 1541 1540 1541 1540 1541 1545 1539 1533 1533 1533 1534 1534 1534 1535 1535 1536 1536 1537 1537 1538 1538 1538 1539
1453 1454 1456 1458 1460 1462 1465 1467 1469 1472 1474 1476 1478 1480 1482 1484 1486 1487 1489 1490 1492 1494 1496 1498 1499 1500 1502 1501 1501 1502 1502 1503 1504 1505 1507 1508 1509 1511 1512 1513 1515 1516 1517 1518 1520 1521 1523 1524 1524 1525 1527 1528 1529 1531 1535 1538 1539 1543 1544 1547 1554 1549 1542 1540 1541 1541 1541 1541 1541 1542 1544 1540 1533 1532 1532 1532 1532 1532 1533 1533 1535 1535 1535 1536 1536 1537 1536 1537
1451 1453 1455 1457 1459 1461 1464 1466 1468 1471 1474 1476 1478 1480 1482 1484 1485 1487 1488 1490 1492 1494 1496 1498 1499 1500 1501 1500 1500 1501 1501 1502 1503 1505 1506 1508 1509 1511 1512 1513 1515 1515 1517 1518 1519 1521 1523 1524 1525 1526 1527 1528 1531 1532 1538 1542 1543 1547 1547 1547 1552 1549 1545 1543 1540 1542 1542 1541 1541 1542 1543 1540 1534 1531 1531 1532 1531 1532 1532 1532 1533 1533 1533 1534 1534 1535 1535 1535
1450 1451 1453 1456 1458 1460 1463 1465 1468 1470 1473 1476 1478 1480 1482 1484 1485 1487 1488 1490 1492 1493 1495 1497 1499 1500 1500 1499 1499 1499 1500 1501 1503 1505 1506 1508 1509 1511 1512 1513 1514 1515 1516 1518 1520 1521 1522 1523 1525 1526 1527 1530 1532 1533 1540 1548 1547 1548 1549 1549 1552 1551 1548 1545 1541 1542 1542 1542 1542 1543 1543 1539 1534 1532 1530 1531 1531 1532 1532 1531 1532 1532 1532 1533 1533 1533 1533 1533
1448 1450 1452 1455 1457 1459 1462 1465 1467 1470 1473 1475 1478 1480 1482 1484 1485 1487 1488 1490 1491 1494 1496 1497 1498 1501 1499 1497 1497 1498 1499 1501 1503 1505 1506 1508 1509 1511 1512 1513 1514 1515 1516 1518 1520 1521 1522 1524 1525 1527 1530 1532 1533 1532 1538 1544 1542 1544 1547 1546 1549 1552 1550 1547 1543 1542 1542 1542 1543 1544 1544 1539 1534 1533 1530 1530 1531 1531 1530 1530 1530 1530 1531 1531 1531 1531 1531 1531
1447 1449 1451 1454 1456 1459 1461 1464 1467 1469 1472 1474 1477 1479 1482 1484 1486 1487 1488 1489 1491 1492 1494 1493 1494 1496 1495 1493 1495 1497 1498 1501 1502 1504 1506 1508 1509 1511 1512 1513 1514 1515 1516 1518 1520 1521 1522 1524 1527 1529 1532 1532 1531 1530 1532 1535 1535 1537 1542 1542 1543 1545 1547 1546 1544 1542 1543 1543 1543 1544 1543 1539 1535 1533 1530 1528 1530 1530 1529 1528 1527 1527 1527 1527 1528 1527 1528 1527
1446 1448 1450 1453 1456 1458 1461 1464 1466 1468 1471 1473 1475 1478 1480 1482 1486 1489 1489 1488 1489 1489 1490 1489 1490 1491 1491 1491 1494 1496 1498 1501 1503 1504 1506 1508 1509 1511 1512 1513 1515 1516 1516 1518 1520 1522 1522 1525 1528 1528 1528 1528 1529 1531 1533 1535 1537 1538 1541 1542 1543 1543 1542 1544 1544 1544 1544 1542 1543 1545 1544 1540 1536 1533 1530 1527 1528 1529 1528 1526 1525 1524 1524 1524 1524 1524 1523 1523
1445 1447 1449 1452 1455 1457 1460 1463 1465 1467 1469 1472 1474 1475 1477 1479 1482 1485 1487 1488 1489 1488 1488 1489 1490 1491 1491 1492 1494 1495 1498 1501 1503 1504 1506 1508 1509 1510 1512 1513 1514 1517 1519 1519 1521 1522 1523 1527 1527 1525 1526 1527 1530 1534 1534 1536 1539 1540 1540 1541 1544 1546 1543 1543 1544 1544 1545 1543 1543 1546 1544 1539 1535 1531 1527 1526 1527 1526 1524 1524 1522 1521 1521 1520 1520 1520 1520 1520
1444 1446 1449 1451 1454 1456 1459 1462 1465 1467 1468 1470 1472 1474 1476 1477 1479 1480 1483 1486 1488 1489 1489 1489 1491 1492 1492 1493 1494 1496 1497 1500 1503 1504 1505 1507 1508 1509 1511 1513 1514 1518 1520 1520 1522 1525 1527 1527 1524 1525 1529 1530 1533 1535 1534 1535 1538 1540 1542 1541 1543 1547 1545 1544 1545 1545 1546 1543 1542 1545 1542 1534 1531 1530 1524 1523 1523 1521 1520 1521 1520 1519 1518 1517 1517 1516 1517 1517
1444 1446 1449 1451 1454 1456 1458 1461 1464 1465 1467 1469 1471 1473 1475 1477 1479 1480 1482 1485 1487 1489 1489 1489 1491 1492 1492 1493 1495 1496 1497 1499 1501 1503 1505 1506 1507 1508 1510 1512 1515 1518 1520 1520 1522 1527 1530 1526 1523 1527 1530 1529 1533 1535 1534 1535 1538 1540 1542 1540 1543 1548 1546 1542 1543 1545 1547 1546 1545 1545 1541 1532 1527 1526 1520 1519 1520 1518 1518 1518 1517 1517 1515 1514 1514 1514 1514 1514
1445 1447 1449 1451 1454 1456 1458 1461 1462 1465 1466 1468 1471 1473 1475 1477 1479 1480 1482 1485 1487 1488 1488 1489 1490 1491 1492 1493 1495 1496 1497 1498 1499 1501 1504 1505 1506 1508 1509 1511 1515 1518 1520 1520 1521 1524 1526 1525 1525 1527 1529 1528 1531 1535 1534 1534 1539 1542 1541 1540 1541 1544 1543 1543 1545 1545 1546 1548 1548 1544 1538 1529 1524 1523 1519 1518 1519 1517 1517 1516 1514 1514 1513 1512 1512 1512 1513 1512
1446 1448 1450 1452 1454 1456 1458 1460 1462 1465 1466 1468 1471 1472 1475 1477 1478 1480 1482 1486 1489 1489 1489 1489 1490 1491 1491 1493 1494 1496 1497 1498 1499 1501 1503 1505 1506 1508 1509 1511 1513 1518 1521 1522 1523 1524 1524 1526 1526 1526 1528 1529 1529 1533 1534 1533 1537 1541 1540 1539 1538 1538 1540 1543 1545 1544 1545 1547 1550 1548 1542 1531 1524 1522 1519 1518 1518 1516 1515 1515 1512 1512 1512 1511 1510 1510 1510 1511
1448 1450 1451 1452 1454 1456 1459 1460 1462 1465 1466 1469 1470 1472 1475 1476 1479 1480 1481 1489 1492 1487 1488 1489 1489 1490 1490 1492 1494 1496 1499 1499 1499 1500 1502 1505 1506 1506 1509 1511 1512 1517 1521 1522 1523 1525 1525 1526 1526 1526 1527 1528 1530 1531 1533 1535 1538 1540 1539 1540 1540 1538 1539 1542 1542 1543 1547 1549 1552 1554 1549 1541 1530 1521 1520 1522 1520 1516 1515 1513 1511 1511 1510 1509 1508 1507 1508 1509
1448 1450 1451 1453 1455 1456 1459 1460 1462 1464 1466 1469 1469 1472 1474 1475 1479 1479 1483 1499 1495 1482 1484 1488 1487 1487 1488 1491 1492 1495 1499 1498 1498 1501 1502 1503 1506 1506 1508 1511 1512 1515 1518 1520 1523 1525 1525 1526 1527 1526 1527 1529 1530 1530 1533 1534 1536 1539 1540 1541 1541 1538 1539 1543 1542 1545 1550 1551 1553 1554 1552 1551 1540 1525 1524 1527 1522 1515 1514 1514 1512 1511 1510 1508 1507 1506 1507 1508
1448 1450 1451 1454 1455 1456 1458 1460 1461 1463 1465 1468 1469 1472 1473 1475 1480 1478 1486 1503 1492 1476 1480 1484 1484 1486 1487 1490 1491 1492 1494 1494 1496 1501 1501 1503 1505 1505 1508 1510 1511 1514 1517 1518 1522 1525 1524 1525 1525 1525 1527 1529 1529 1530 1532 1533 1533 1538 1543 1543 1542 1541 1543 1545 1545 1548 1555 1554 1551 1552 1554 1554 1543 1528 1528 1529 1522 1517 1515 1515 1515 1512 1510 1508 1507 1507 1507 1508
1448 1450 1452 1454 1455 1457 1458 1459 1461 1463 1465 1468 1469 1472 1473 1476 1479 1479 1491 1497 1481 1473 1479 1480 1483 1485 1486 1489 1491 1492 1493 1494 1495 1498 1501 1503 1505 1505 1507 1510 1511 1514 1517 1517 1519 1524 1525 1525 1525 1525 1525 1527 1530 1533 1534 1532 1532 1538 1543 1544 1544 1547 1547 1548 1548 1549 1554 1555 1551 1552 1555 1553 1541 1527 1526 1527 1521 1519 1517 1517 1516 1513 1511 1510 1508 1509 1508 1509
1448 1450 1452 1454 1455 1457 1458 1460 1462 1463 1465 1467 1469 1471 1473 1476 1478 1487 1500 1490 1471 1475 1480 1479 1482 1483 1485 1489 1492 1493 1493 1494 1495 1497 1501 1503 1504 1505 1507 1510 1511 1514 1518 1519 1522 1525 1526 1525 1526 1526 1525 1527 1530 1534 1536 1534 1534 1537 1540 1541 1543 1547 1548 1550 1554 1552 1554 1556 1553 1557 1560 1557 1546 1528 1522 1523 1520 1519 1518 1517 1516 1513 1512 1512 1510 1511 1510 1511
1448 1450 1452 1453 1455 1457 1458 1460 1461 1463 1465 1467 1468 1471 1472 1476 1481 1491 1495 1477 1468 1478 1481 1480 1482 1481 1482 1485 1489 1493 1494 1495 1496 1496 1500 1502 1504 1505 1507 1510 1512 1516 1521 1522 1524 1527 1526 1526 1527 1527 1527 1528 1529 1532 1536 1536 1537 1537 1537 1539 1543 1549 1551 1553 1557 1556 1557 1556 1556 1564 1567 1561 1551 1532 1520 1520 1520 1520 1520 1517 1516 1514 1513 1513 1512 1512 1512 1512
1448 1450 1452 1453 1455 1456 1458 1460 1461 1463 1465 1466 1468 1470 1471 1480 1485 1484 1480 1470 1469 1477 1477 1478 1481 1481 1482 1483 1487 1492 1493 1496 1497 1496 1499 1501 1503 1504 1505 1506 1508 1517 1525 1525 1525 1528 1527 1526 1528 1528 1527 1527 1526 1531 1538 1539 1538 1537 1537 1541 1547 1555 1559 1558 1561 1564 1562 1558 1559 1567 1566 1558 1550 1531 1519 1518 1516 1519 1520 1517 1516 1516 1515 1514 1514 1514 1514 1513
1448 1450 1452 1453 1455 1456 1458 1460 1461 1463 1464 1465 1468 1468 1471 1482 1482 1472 1472 1472 1470 1472 1473 1475 1478 1480 1482 1484 1489 1491 1492 1495 1496 1497 1499 1500 1503 1505 1505 1506 1505 1509 1518 1524 1527 1529 1529 1529 1528 1527 1527 1526 1524 1528 1536 1539 1538 1536 1536 1540 1545 1556 1562 1561 1567 1572 1564 1557 1562 1569 1563 1552 1542 1528 1519 1517 1515 1517 1518 1515 1516 1516 1516 1515 1515 1516 1515 1515
1448 1449 1451 1453 1454 1456 1457 1459 1461 1461 1463 1465 1466 1469 1474 1478 1471 1464 1468 1472 1471 1472 1473 1474 1478 1482 1483 1484 1488 1488 1490 1495 1496 1497 1499 1501 1505 1506 1504 1506 1506 1505 1511 1523 1527 1526 1529 1529 1525 1524 1524 1524 1524 1525 1527 1531 1535 1538 1539 1539 1540 1545 1550 1552 1557 1557 1553 1555 1563 1567 1556 1538 1528 1521 1517 1516 1515 1516 1515 1515 1516 1515 1516 1516 1516 1517 1516 1516
1447 1449 1450 1452 1454 1456 1457 1459 1460 1461 1463 1464 1465 1470 1471 1468 1464 1462 1465 1468 1470 1473 1475 1476 1478 1483 1486 1486 1487 1486 1487 1493 1496 1497 1499 1500 1501 1502 1501 1502 1505 1505 1507 1517 1524 1524 1527 1524 1520 1522 1522 1521 1523 1524 1524 1528 1535 1542 1544 1541 1540 1537 1539 1552 1562 1560 1559 1560 1559 1558 1547 1532 1524 1517 1515 1516 1516 1515 1515 1514 1515 1514 1515 1516 1516 1517 1517 1517
1447 1448 1449 1452 1453 1455 1457 1458 1460 1461 1462 1463 1466 1468 1463 1458 1459 1461 1459 1462 1467 1470 1475 1479 1480 1484 1488 1488 1488 1488 1486 1490 1495 1498 1499 1500 1499 1499 1498 1497 1499 1501 1500 1506 1518 1523 1525 1524 1523 1524 1523 1523 1524 1524 1525 1526 1531 1540 1543 1539 1541 1540 1538 1550 1566 1572 1568 1558 1550 1550 1541 1530 1527 1518 1511 1515 1515 1514 1515 1513 1513 1514 1515 1516 1516 1517 1518 1518
1446 1447 1449 1451 1453 1454 1456 1457 1459 1460 1461 1463 1464 1462 1458 1456 1458 1459 1458 1459 1463 1465 1471 1478 1480 1482 1486 1487 1487 1487 1486 1489 1495 1497 1498 1500 1497 1494 1496 1495 1494 1497 1495 1499 1509 1514 1517 1522 1525 1525 1524 1525 1525 1524 1527 1526 1528 1536 1538 1536 1539 1543 1542 1543 1551 1563 1568 1559 1548 1548 1541 1532 1531 1523 1513 1512 1513 1513 1515 1514 1514 1515 1515 1516 1517 1517 1518 1518
1445 1447 1448 1450 1452 1454 1455 1457 1458 1459 1461 1464 1462 1457 1457 1458 1458 1459 1459 1459 1461 1463 1467 1472 1476 1478 1481 1484 1486 1486 1486 1488 1493 1495 1496 1498 1493 1487 1490 1492 1492 1494 1494 1495 1501 1506 1509 1517 1526 1529 1527 1526 1526 1526 1528 1530 1529 1530 1531 1532 1535 1538 1542 1545 1547 1551 1559 1560 1549 1546 1548 1540 1532 1524 1513 1509 1511 1511 1514 1515 1514 1515 1516 1516 1517 1517 1518 1518
1445 1447 1448 1449 1451 1453 1454 1456 1457 1458 1461 1463 1459 1456 1458 1459 1458 1459 1459 1458 1459 1461 1464 1467 1471 1476 1479 1480 1482 1485 1485 1486 1491 1494 1492 1494 1490 1484 1485 1487 1489 1493 1494 1494 1498 1503 1507 1512 1522 1530 1529 1528 1528 1527 1527 1529 1532 1531 1531 1534 1535 1535 1538 1542 1546 1545 1547 1554 1551 1543 1540 1531 1524 1521 1511 1506 1512 1513 1513 1516 1516 1515 1516 1516 1517 1517 1518 1519
1445 1447 1448 1449 1451 1453 1454 1456 1457 1458 1459 1459 1456 1457 1459 1458 1458 1458 1458 1459 1459 1460 1462 1464 1467 1472 1477 1479 1480 1482 1484 1485 1489 1490 1488 1489 1488 1485 1484 1484 1487 1491 1494 1496 1498 1503 1506 1508 1516 1529 1532 1529 1526 1523 1522 1523 1527 1530 1531 1534 1535 1537 1540 1540 1545 1547 1542 1545 1550 1545 1535 1523 1517 1516 1508 1505 1511 1512 1512 1514 1516 1516 1516 1516 1517 1517 1518 1519
1445 1447 1448 1449 1451 1453 1454 1455 1456 1457 1458 1458 1457 1458 1459 1457 1458 1458 1458 1459 1460 1460 1461 1463 1465 1467 1471 1476 1477 1478 1482 1485 1487 1487 1486 1486 1485 1483 1482 1482 1484 1489 1494 1498 1498 1499 1505 1508 1516 1528 1531 1525 1520 1520 1521 1520 1521 1521 1523 1526 1527 1531 1537 1539 1543 1549 1547 1543 1545 1546 1537 1520 1511 1510 1508 1506 1509 1510 1511 1512 1514 1516 1515 1516 1517 1517 1518 1519
1445 1446 1447 1448 1450 1452 1453 1455 1456 1456 1458 1458 1457 1457 1457 1457 1458 1458 1458 1459 1460 1461 1462 1463 1465 1466 1467 1470 1473 1475 1479 1482 1485 1485 1482 1481 1481 1480 1480 1480 1482 1485 1489 1494 1496 1495 1501 1509 1516 1524 1525 1522 1521 1522 1523 1522 1521 1521 1521 1522 1524 1525 1527 1530 1535 1543 1547 1545 1546 1550 1541 1519 1508 1510 1510 1508 1509 1510 1511 1513 1513 1514 1515 1515 1517 1517 1518 1519
1444 1445 1446 1447 1449 1450 1453 1456 1457 1457 1458 1457 1456 1456 1456 1457 1457 1458 1458 1460 1460 1461 1462 1463 1465 1466 1467 1468 1470 1472 1474 1477 1481 1481 1478 1479 1480 1478 1479 1480 1481 1484 1486 1490 1494 1495 1499 1504 1511 1519 1523 1522 1521 1522 1523 1523 1522 1523 1523 1523 1525 1525 1524 1525 1530 1535 1538 1539 1542 1550 1542 1518 1508 1512 1511 1509 1510 1510 1512 1513 1513 1514 1514 1515 1516 1516 1516 1517
1443 1444 1446 1447 1448 1449 1451 1453 1453 1455 1457 1456 1456 1457 1457 1457 1457 1458 1458 1459 1460 1461 1463 1464 1465 1465 1466 1468 1468 1469 1471 1473 1476 1478 1477 1478 1478 1477 1479 1479 1480 1482 1483 1485 1488 1491 1496 1501 1507 1517 1524 1525 1525 1524 1522 1522 1522 1521 1521 1523 1522 1523 1527 1531 1533 1535 1535 1531 1531 1537 1533 1516 1510 1512 1511 1510 1511 1511 1512 1513 1512 1513 1513 1513 1514 1514 1514 1514
1443 1445 1446 1446 1447 1448 1449 1449 1449 1453 1455 1456 1457 1458 1458 1458 1457 1457 1459 1459 1460 1461 1462 1463 1464 1464 1467 1469 1468 1469 1470 1471 1472 1475 1478 1478 1477 1477 1478 1478 1479 1480 1480 1482 1483 1485 1492 1497 1500 1508 1517 1519 1518 1515 1511 1514 1521 1521 1519 1520 1520 1522 1525 1526 1529 1535 1532 1528 1529 1527 1520 1514 1512 1512 1511 1511 1512 1511 1512 1512 1512 1512 1512 1511 1510 1510 1509 1509
1442 1444 1446 1447 1447 1447 1447 1447 1448 1450 1453 1455 1456 1457 1457 1459 1457 1456 1458 1459 1460 1461 1461 1463 1464 1465 1467 1468 1468 1469 1471 1471 1472 1473 1475 1476 1477 1478 1478 1477 1479 1479 1480 1482 1482 1485 1491 1495 1495 1496 1499 1500 1499 1499 1501 1506 1514 1516 1514 1517 1519 1521 1521 1521 1527 1529 1524 1525 1529 1520 1513 1514 1513 1512 1511 1510 1510 1510 1510 1510 1510 1509 1508 1507 1507 1507 1507 1507
1442 1442 1444 1445 1446 1446 1446 1447 1447 1448 1449 1452 1453 1453 1454 1457 1457 1456 1458 1458 1459 1460 1462 1463 1463 1465 1467 1468 1469 1470 1471 1472 1472 1472 1474 1475 1476 1478 1478 1478 1479 1479 1480 1481 1482 1485 1489 1492 1493 1492 1493 1494 1494 1496 1500 1501 1503 1506 1509 1513 1516 1518 1520 1521 1521 1517 1515 1524 1523 1513 1514 1515 1509 1509 1510 1506 1506 1508 1508 1508 1508 1508 1507 1507 1508 1509 1510 1511
1442 1441 1441 1442 1443 1444 1445 1445 1445 1447 1448 1449 1450 1450 1452 1455 1456 1456 1457 1458 1458 1459 1461 1463 1463 1463 1465 1466 1468 1470 1472 1473 1473 1473 1475 1476 1477 1479 1478 1478 1480 1480 1481 1482 1482 1484 1486 1488 1491 1493 1493 1495 1497 1499 1500 1499 1500 1502 1505 1509 1512 1516 1518 1517 1514 1509 1511 1517 1510 1505 1512 1510 1502 1506 1507 1503 1505 1507 1507 1508 1509 1509 1509 1509 1510 1512 1512 1512
1441 1441 1441 1441 1442 1443 1443 1443 1445 1447 1448 1448 1450 1450 1451 1454 1455 1454 1454 1457 1459 1458 1458 1461 1462 1462 1465 1466 1466 1469 1471 1471 1472 1473 1475 1475 1477 1478 1478 1478 1480 1480 1481 1482 1484 1485 1485 1486 1490 1492 1493 1494 1498 1501 1502 1500 1501 1503 1505 1507 1509 1512 1512 1510 1507 1504 1507 1509 1505 1508 1515 1507 1501 1506 1505 1501 1505 1507 1508 1509 1508 1508 1510 1510 1511 1511 1511 1512
1441 1441 1441 1442 1442 1443 1444 1444 1445 1447 1448 1449 1449 1449 1449 1450 1452 1452 1452 1454 1456 1457 1457 1459 1460 1462 1464 1465 1466 1467 1468 1468 1469 1472 1473 1474 1476 1477 1477 1477 1479 1481 1481 1482 1485 1485 1485 1488 1492 1492 1492 1495 1499 1502 1503 1502 1500 1501 1504 1507 1508 1509 1510 1508 1505 1505 1509 1510 1507 1512 1516 1506 1500 1504 1503 1502 1505 1507 1508 1509 1508 1508 1509 1509 1509 1510 1510 1510
1441 1441 1441 1442 1442 1443 1444 1444 1445 1447 1448 1448 1448 1447 1447 1448 1448 1449 1451 1451 1452 1455 1456 1457 1460 1462 1465 1466 1465 1465 1465 1466 1468 1469 1470 1472 1473 1474 1475 1476 1478 1480 1481 1483 1485 1484 1485 1490 1493 1492 1493 1495 1497 1502 1505 1503 1503 1504 1504 1504 1505 1507 1507 1506 1506 1506 1506 1506 1507 1512 1511 1501 1496 1500 1502 1502 1503 1505 1507 1507 1507 1508 1507 1507 1508 1508 1508 1509
1440 1441 1441 1442 1443 1443 1444 1445 1446 1447 1446 1444 1444 1445 1447 1447 1447 1449 1451 1451 1450 1452 1453 1454 1457 1461 1464 1465 1463 1462 1464 1466 1467 1469 1470 1471 1472 1473 1474 1476 1476 1477 1479 1482 1485 1486 1487 1489 1492 1493 1494 1496 1499 1503 1504 1505 1508 1506 1497 1492 1496 1501 1501 1502 1504 1503 1500 1501 1504 1506 1500 1492 1494 1499 1500 1501 1503 1503 1505 1505 1505 1506 1506 1506 1507 1507 1507 1508